EW5945 Weather Reports


Display with metric or nautical units.
time (UTC)temp
F
wind
direction
speed
MPH
gust
MPH
rain 1hr
in
rain 24hr
in
rain mn
in
humidity
%
barometer
mb
20260902025838 79 276 0.0 2.0 0.00 0.00 0.00 95 1017.6
20260902025338 79 295 2.0 2.0 0.00 0.00 0.00 94 1017.6
20260902024838 79 254 3.0 3.0 0.00 0.00 0.00 94 1017.3
20260902024338 79 272 3.0 3.0 0.00 0.00 0.00 94 1017.3
20260902023838 79 249 2.0 3.0 0.00 0.00 0.00 94 1017.3
20260902023338 79 217 3.0 3.0 0.00 0.00 0.00 94 1017.3
20260902022839 79 264 2.0 2.0 0.00 0.00 0.00 94 1017.6
20260902022338 79 254 0.0 2.0 0.00 0.00 0.00 93 1017.6
20260902021838 79 253 0.0 2.0 0.00 0.00 0.00 93 1017.6
20260902021339 79 259 2.0 2.0 0.00 0.00 0.00 93 1017.3
20260902020839 79 260 0.0 2.0 0.00 0.00 0.00 93 1017.3
20260902020340 80 226 2.0 3.0 0.00 0.00 0.00 93 1017.3
20260902015840 80 238 3.0 3.0 0.00 0.00 0.00 92 1017.3
20260902015340 80 272 3.0 5.0 0.00 0.00 0.00 92 1017.6
20260902014838 80 240 2.0 3.0 0.00 0.00 0.00 92 1017.6
20260902014338 80 251 2.0 2.0 0.00 0.00 0.00 92 1017.6
20260902013838 80 235 2.0 3.0 0.00 0.00 0.00 91 1017.6
20260902013339 80 221 3.0 3.0 0.00 0.00 0.00 91 1017.3
20260902012839 80 238 2.0 2.0 0.00 0.00 0.00 91 1017.3
20260902012340 80 214 3.0 3.0 0.00 0.00 0.00 91 1017.3
20260902011838 80 212 3.0 3.0 0.00 0.00 0.00 90 1017.3
20260902011338 81 225 2.0 3.0 0.00 0.00 0.00 90 1017.3
20260902010839 81 257 2.0 3.0 0.00 0.00 0.00 90 1017.3
20260902010339 81 250 3.0 5.0 0.00 0.00 0.00 90 1017.3
20260902005838 81 276 2.0 3.0 0.00 0.00 0.00 90 1017.3
20260902005339 81 259 0.0 2.0 0.00 0.00 0.00 90 1017.3
20260902004838 81 284 3.0 3.0 0.00 0.00 0.00 90 1017.3
20260902004339 81 201 2.0 2.0 0.00 0.00 0.00 89 1017.3
20260902003839 81 215 0.0 2.0 0.00 0.00 0.00 89 1017.3
20260902003339 81 245 2.0 2.0 0.00 0.00 0.00 89 1017.3
20260902002839 81 217 3.0 3.0 0.00 0.00 0.00 88 1017.3
20260902002338 81 226 2.0 2.0 0.00 0.00 0.00 88 1017.3
20260902001838 81 196 2.0 3.0 0.00 0.00 0.00 87 1017.3
20260902001338 82 253 0.0 0.0 0.00 0.00 0.00 87 1017.3
20260902000838 82 279 0.0 0.0 0.00 0.00 0.00 86 1017.3
20260902000339 82 266 0.0 0.0 0.00 0.00 0.00 86 1017.3
20260901235838 82 29 0.0 2.0 0.00 0.00 0.00 86 1017.3
20260901235338 82 281 0.0 0.0 0.00 0.00 0.00 85 1017.3
20260901234838 82 147 0.0 2.0 0.00 0.00 0.00 85 1017.3
20260901234338 83 147 0.0 2.0 0.00 0.00 0.00 85 1017.3
20260901233838 83 249 3.0 3.0 0.00 0.00 0.00 84 1017.3
20260901233339 83 276 0.0 0.0 0.00 0.00 0.00 84 1017.3
20260901232839 83 249 2.0 2.0 0.00 0.00 0.00 84 1017.3
20260901232338 83 303 0.0 0.0 0.00 0.00 0.00 83 1017.3
20260901231838 84 210 2.0 2.0 0.00 0.00 0.00 82 1017.3
20260901231339 84 201 3.0 3.0 0.00 0.00 0.00 82 1017.3
20260901230839 85 236 3.0 3.0 0.00 0.00 0.00 81 1017.3
20260901230339 85 237 2.0 3.0 0.00 0.00 0.00 81 1017.3
20260901225838 85 208 2.0 2.0 0.00 0.00 0.00 80 1017.3
20260901225338 86 256 2.0 2.0 0.00 0.00 0.00 80 1017.3
20260901224839 86 265 0.0 0.0 0.00 0.00 0.00 79 1017.3
20260901224338 86 16 0.0 0.0 0.00 0.00 0.00 79 1017.3
20260901223839 86 13 0.0 0.0 0.00 0.00 0.00 79 1017.3
20260901223340 86 75 2.0 3.0 0.00 0.00 0.00 80 1017.3
20260901222838 86 268 2.0 2.0 0.00 0.00 0.00 80 1017.3
20260901222338 86 101 2.0 2.0 0.00 0.00 0.00 80 1017.3
20260901221839 86 261 0.0 2.0 0.00 0.00 0.00 80 1017.3
20260901221339 87 125 3.0 3.0 0.00 0.00 0.00 78 1017.3
20260901220350 87 319 2.0 2.0 0.00 0.00 0.00 78 1017.3
20260901215839 88 260 3.0 3.0 0.00 0.00 0.00 76 1016.9
20260901215338 88 204 2.0 2.0 0.00 0.00 0.00 75 1017.3
20260901214839 88 261 2.0 3.0 0.00 0.00 0.00 74 1016.9
20260901214338 89 229 3.0 3.0 0.00 0.00 0.00 76 1017.3
20260901213838 88 213 2.0 3.0 0.00 0.00 0.00 77 1017.3
20260901213338 88 348 2.0 2.0 0.00 0.00 0.00 76 1016.9
20260901212838 90 251 2.0 3.0 0.00 0.00 0.00 75 1016.9
20260901212339 89 343 0.0 2.0 0.00 0.00 0.00 76 1016.9
20260901211839 89 290 0.0 2.0 0.00 0.00 0.00 75 1016.9
20260901211338 88 296 0.0 2.0 0.00 0.00 0.00 74 1016.9
20260901210839 88 235 2.0 2.0 0.00 0.00 0.00 75 1017.3
20260901210339 89 123 2.0 3.0 0.00 0.00 0.00 75 1016.9
20260901205839 89 225 2.0 3.0 0.00 0.00 0.00 73 1017.3
20260901205338 90 229 2.0 2.0 0.00 0.00 0.00 74 1017.3
20260901204839 90 225 2.0 3.0 0.00 0.00 0.00 75 1017.3
20260901204339 91 166 2.0 5.0 0.00 0.00 0.00 74 1017.3
20260901203838 90 97 2.0 2.0 0.00 0.00 0.00 77 1017.3
20260901203339 92 276 5.0 5.0 0.00 0.00 0.00 74 1017.3
20260901202840 91 39 2.0 3.0 0.00 0.00 0.00 73 1016.9
20260901202339 92 219 3.0 5.0 0.00 0.00 0.00 73 1016.9
20260901201838 91 302 0.0 2.0 0.00 0.00 0.00 76 1016.9
20260901201339 92 227 3.0 3.0 0.00 0.00 0.00 73 1017.3
20260901200841 91 172 3.0 3.0 0.00 0.00 0.00 72 1017.3
20260901200340 91 241 2.0 2.0 0.00 0.00 0.00 72 1017.3
20260901195839 92 304 3.0 5.0 0.00 0.00 0.00 73 1017.3
20260901195338 92 327 2.0 2.0 0.00 0.00 0.00 69 1017.3
20260901194838 93 246 3.0 5.0 0.00 0.00 0.00 65 1017.3
20260901194338 93 234 3.0 5.0 0.00 0.00 0.00 66 1017.3
20260901193839 92 194 2.0 2.0 0.00 0.00 0.00 66 1017.3
20260901193338 93 219 3.0 3.0 0.00 0.00 0.00 65 1017.3
20260901192838 92 84 2.0 2.0 0.00 0.00 0.00 63 1017.3
20260901192340 92 237 0.0 3.0 0.00 0.00 0.00 65 1017.3
20260901191838 92 229 2.0 2.0 0.00 0.00 0.00 65 1017.3
20260901191338 93 239 3.0 3.0 0.00 0.00 0.00 62 1017.6
20260901190839 92 289 0.0 2.0 0.00 0.00 0.00 67 1017.6
20260901190339 92 131 2.0 2.0 0.00 0.00 0.00 66 1017.6
20260901185838 91 356 0.0 0.0 0.00 0.00 0.00 67 1017.6
20260901185339 92 200 2.0 3.0 0.00 0.00 0.00 67 1017.6
20260901184838 90 208 2.0 2.0 0.00 0.00 0.00 69 1017.6
20260901184338 93 264 3.0 5.0 0.00 0.00 0.00 66 1017.6
20260901183839 93 21 0.0 2.0 0.00 0.00 0.00 64 1017.9
20260901183339 93 293 2.0 2.0 0.00 0.00 0.00 61 1017.6
20260901182839 93 222 3.0 5.0 0.00 0.00 0.00 61 1017.6
20260901182342 92 273 2.0 2.0 0.00 0.00 0.00 64 1017.6
20260901181839 91 91 2.0 2.0 0.00 0.00 0.00 65 1017.6
20260901181338 93 180 3.0 3.0 0.00 0.00 0.00 60 1017.9
20260901180839 93 225 5.0 5.0 0.00 0.00 0.00 60 1017.9
20260901180339 93 292 2.0 5.0 0.00 0.00 0.00 61 1017.9
20260901175838 93 298 0.0 3.0 0.00 0.00 0.00 60 1017.9
20260901175338 93 26 3.0 3.0 0.00 0.00 0.00 59 1017.9
20260901174838 93 247 2.0 3.0 0.00 0.00 0.00 61 1017.9
20260901174338 92 211 3.0 3.0 0.00 0.00 0.00 60 1018.3
20260901173838 92 205 2.0 2.0 0.00 0.00 0.00 63 1018.3
20260901173338 92 206 2.0 3.0 0.00 0.00 0.00 63 1018.3
20260901172839 93 282 2.0 5.0 0.00 0.00 0.00 63 1018.3
20260901172338 91 248 3.0 3.0 0.00 0.00 0.00 65 1018.3
20260901171839 90 293 0.0 2.0 0.00 0.00 0.00 67 1018.3
20260901171338 91 116 2.0 2.0 0.00 0.00 0.00 64 1018.3
20260901170839 90 277 0.0 0.0 0.00 0.00 0.00 66 1018.3
20260901170339 89 345 0.0 0.0 0.00 0.00 0.00 67 1018.3
20260901165838 89 87 2.0 2.0 0.00 0.00 0.00 65 1018.6
20260901165338 89 231 0.0 2.0 0.00 0.00 0.00 64 1018.6
20260901164839 90 302 2.0 2.0 0.00 0.00 0.00 60 1018.6
20260901164338 90 314 3.0 3.0 0.00 0.00 0.00 64 1018.6
20260901163839 89 273 3.0 3.0 0.00 0.00 0.00 60 1018.6
20260901163339 89 326 3.0 5.0 0.00 0.00 0.00 67 1018.6
20260901162839 89 266 2.0 2.0 0.00 0.00 0.00 69 1018.6
20260901162338 89 281 3.0 3.0 0.00 0.00 0.00 69 1019.0
20260901161840 88 2 0.0 2.0 0.00 0.00 0.00 72 1019.0
20260901161339 88 28 3.0 5.0 0.00 0.00 0.00 71 1019.0
20260901160839 88 289 5.0 5.0 0.00 0.00 0.00 76 1019.0
20260901160338 88 34 3.0 3.0 0.00 0.00 0.00 76 1019.0
20260901155838 88 312 3.0 7.0 0.00 0.00 0.00 77 1019.0
20260901155340 87 258 2.0 2.0 0.00 0.00 0.00 77 1019.0
20260901154838 87 292 3.0 5.0 0.00 0.00 0.00 76 1019.0
20260901154339 87 277 2.0 5.0 0.00 0.00 0.00 76 1019.0
20260901153839 86 329 0.0 0.0 0.00 0.00 0.00 75 1019.0
20260901153339 86 288 2.0 2.0 0.00 0.00 0.00 77 1019.3
20260901152838 86 345 2.0 2.0 0.00 0.00 0.00 78 1019.0
20260901152339 86 348 3.0 3.0 0.00 0.00 0.00 80 1019.3
20260901151839 86 76 6.0 7.0 0.00 0.00 0.00 82 1019.3
20260901151338 85 19 5.0 7.0 0.00 0.00 0.00 81 1019.3
20260901150839 85 354 2.0 2.0 0.00 0.00 0.00 82 1019.3
20260901150338 85 337 3.0 3.0 0.00 0.00 0.00 83 1019.3
20260901145838 85 230 2.0 3.0 0.00 0.00 0.00 83 1019.3
20260901145338 85 287 0.0 2.0 0.00 0.00 0.00 83 1019.6
20260901144839 84 24 5.0 5.0 0.00 0.00 0.00 87 1019.3
20260901144338 83 264 2.0 2.0 0.00 0.00 0.00 87 1019.3
20260901143839 83 27 2.0 2.0 0.00 0.00 0.00 87 1019.6
20260901143339 83 167 2.0 2.0 0.00 0.00 0.00 88 1019.3
20260901142839 83 290 0.0 3.0 0.00 0.00 0.00 89 1019.6
20260901142339 82 92 2.0 2.0 0.00 0.00 0.00 89 1019.6
20260901141839 82 44 3.0 3.0 0.00 0.00 0.00 89 1019.6
20260901141339 81 272 2.0 3.0 0.00 0.00 0.00 91 1019.6
20260901140839 81 339 0.0 2.0 0.00 0.00 0.00 94 1019.6
20260901140338 80 16 3.0 3.0 0.00 0.00 0.00 95 1019.6
20260901135838 79 16 3.0 3.0 0.00 0.00 0.00 97 1019.6
20260901135338 79 346 0.0 2.0 0.00 0.00 0.00 99 1019.6
20260901134839 79 223 0.0 2.0 0.00 0.00 0.00 100 1019.6
20260901134338 79 287 2.0 2.0 0.00 0.00 0.00 100 1019.6
20260901133838 78 46 5.0 5.0 0.00 0.00 0.00 100 1019.6
20260901133338 78 217 2.0 2.0 0.00 0.00 0.00 100 1019.3
20260901132839 78 321 2.0 2.0 0.00 0.00 0.00 100 1019.6
20260901132339 77 229 2.0 2.0 0.00 0.00 0.00 100 1019.6
20260901131840 77 281 2.0 2.0 0.00 0.00 0.00 100 1019.6
20260901131339 77 216 3.0 3.0 0.00 0.00 0.00 100 1019.3
20260901130841 77 215 2.0 3.0 0.00 0.00 0.00 100 1019.6
20260901130341 77 257 2.0 3.0 0.00 0.00 0.00 100 1019.3
20260901125838 77 359 0.0 2.0 0.00 0.00 0.00 100 1019.3
20260901125338 77 311 0.0 3.0 0.00 0.00 0.00 100 1019.3
20260901124838 77 283 3.0 3.0 0.00 0.00 0.00 100 1019.3
20260901124340 77 258 2.0 2.0 0.00 0.00 0.00 100 1019.3
20260901123838 76 325 0.0 0.0 0.00 0.00 0.00 100 1019.3
20260901123338 76 260 0.0 2.0 0.00 0.00 0.00 100 1019.3
20260901122839 76 269 2.0 2.0 0.00 0.00 0.00 100 1019.3
20260901122339 76 307 0.0 2.0 0.00 0.00 0.00 100 1019.3
20260901121838 75 280 0.0 0.0 0.00 0.00 0.00 100 1019.3
20260901121339 75 276 0.0 0.0 0.00 0.00 0.00 100 1019.3
20260901120839 74 279 0.0 2.0 0.00 0.00 0.00 100 1019.3
20260901120338 74 311 0.0 0.0 0.00 0.00 0.00 100 1019.3
20260901115838 73 317 0.0 0.0 0.00 0.00 0.00 100 1019.3
20260901115339 73 326 0.0 0.0 0.00 0.00 0.00 100 1019.0
20260901114838 73 326 0.0 0.0 0.00 0.00 0.00 100 1019.0
20260901114339 73 326 0.0 0.0 0.00 0.00 0.00 100 1019.3
20260901113838 73 329 0.0 0.0 0.00 0.00 0.00 100 1019.0
20260901113339 73 329 0.0 0.0 0.00 0.00 0.00 100 1019.0
20260901112838 73 326 0.0 0.0 0.00 0.00 0.00 100 1019.0
20260901112339 72 326 0.0 0.0 0.00 0.00 0.00 100 1019.0
20260901111839 72 325 0.0 0.0 0.00 0.00 0.00 100 1019.0
20260901111339 72 327 0.0 0.0 0.00 0.00 0.00 100 1018.6
20260901110839 72 328 0.0 0.0 0.00 0.00 0.00 100 1019.0
20260901110338 72 329 0.0 0.0 0.00 0.00 0.00 100 1019.0
20260901105839 72 324 0.0 0.0 0.00 0.00 0.00 100 1018.6
20260901105339 72 324 0.0 0.0 0.00 0.00 0.00 100 1018.6
20260901104352 72 326 0.0 0.0 0.00 0.00 0.00 100 1018.6
20260901103839 72 329 0.0 0.0 0.00 0.00 0.00 100 1018.6
20260901103338 72 330 0.0 0.0 0.00 0.00 0.00 100 1018.6
20260901102841 72 331 0.0 0.0 0.00 0.00 0.00 100 1018.3
20260901102338 72 330 0.0 0.0 0.00 0.00 0.00 100 1018.3
20260901101838 72 330 0.0 0.0 0.00 0.00 0.00 100 1018.3
20260901101338 72 331 0.0 0.0 0.00 0.00 0.00 100 1018.3
20260901100838 72 331 0.0 0.0 0.00 0.00 0.00 100 1018.3
20260901100338 73 331 0.0 0.0 0.00 0.00 0.00 100 1018.3
20260901095839 72 327 0.0 0.0 0.00 0.00 0.00 100 1018.3
20260901095338 72 324 0.0 0.0 0.00 0.00 0.00 100 1018.3
20260901094838 72 325 0.0 0.0 0.00 0.00 0.00 100 1018.3
20260901094338 72 326 0.0 0.0 0.00 0.00 0.00 100 1018.3
20260901093839 72 324 0.0 0.0 0.00 0.00 0.00 100 1018.3
20260901093338 72 329 0.0 0.0 0.00 0.00 0.00 100 1018.3
20260901092839 72 342 0.0 0.0 0.00 0.00 0.00 100 1018.3
20260901092339 72 329 0.0 0.0 0.00 0.00 0.00 100 1018.3
20260901091838 73 322 0.0 0.0 0.00 0.00 0.00 100 1018.3
20260901091339 73 323 0.0 0.0 0.00 0.00 0.00 100 1018.3
20260901090838 73 327 0.0 0.0 0.00 0.00 0.00 100 1018.3
20260901090339 73 321 0.0 0.0 0.00 0.00 0.00 100 1018.6
20260901085838 73 320 0.0 0.0 0.00 0.00 0.00 100 1018.6
20260901085338 73 316 0.0 0.0 0.00 0.00 0.00 100 1018.6
20260901084838 73 320 0.0 0.0 0.00 0.00 0.00 100 1018.6
20260901084338 73 321 0.0 0.0 0.00 0.00 0.00 100 1018.6
20260901083839 73 321 0.0 0.0 0.00 0.00 0.00 100 1018.6
20260901083338 73 321 0.0 0.0 0.00 0.00 0.00 100 1018.6
20260901082839 73 317 0.0 0.0 0.00 0.00 0.00 100 1018.6
20260901082338 73 317 0.0 0.0 0.00 0.00 0.00 100 1018.6
20260901081838 73 317 0.0 0.0 0.00 0.00 0.00 100 1018.6
20260901081339 73 318 0.0 0.0 0.00 0.00 0.00 100 1018.3
20260901080839 73 319 0.0 0.0 0.00 0.00 0.00 100 1018.6
20260901080338 73 317 0.0 0.0 0.00 0.00 0.00 100 1018.6
20260901075839 73 320 0.0 0.0 0.00 0.00 0.00 100 1018.6
20260901075339 73 317 0.0 0.0 0.00 0.00 0.00 100 1018.6
20260901074839 74 316 0.0 0.0 0.00 0.00 0.00 100 1018.6
20260901074338 73 316 0.0 0.0 0.00 0.00 0.00 100 1018.6
20260901073839 73 317 0.0 0.0 0.00 0.00 0.00 100 1018.6
20260901073338 74 317 0.0 0.0 0.00 0.00 0.00 100 1018.6
20260901072838 74 318 0.0 0.0 0.00 0.00 0.00 100 1018.6
20260901072338 73 318 0.0 0.0 0.00 0.00 0.00 100 1018.6
20260901071838 74 315 0.0 0.0 0.00 0.00 0.00 100 1018.6
20260901071339 74 315 0.0 0.0 0.00 0.00 0.00 100 1018.6
20260901070839 74 318 0.0 0.0 0.00 0.00 0.00 100 1018.6
20260901070340 74 315 0.0 0.0 0.00 0.00 0.00 100 1018.6
20260901065838 74 320 0.0 0.0 0.00 0.00 0.00 100 1018.6
20260901065340 74 325 0.0 0.0 0.00 0.00 0.00 100 1018.6
20260901064838 74 324 0.0 0.0 0.00 0.00 0.00 100 1019.0
20260901064339 74 326 0.0 0.0 0.00 0.00 0.00 100 1019.0
20260901063838 74 324 0.0 0.0 0.00 0.00 0.00 100 1019.0
20260901063338 74 326 0.0 0.0 0.00 0.00 0.00 100 1019.0
20260901062839 74 324 0.0 0.0 0.00 0.00 0.00 100 1019.0
20260901062338 74 321 0.0 0.0 0.00 0.00 0.00 100 1019.0
20260901061839 74 335 0.0 0.0 0.00 0.00 0.00 100 1019.0
20260901061339 74 336 0.0 0.0 0.00 0.00 0.00 100 1019.0
20260901060839 74 335 0.0 0.0 0.00 0.00 0.00 100 1019.3
20260901060339 74 335 0.0 0.0 0.00 0.00 0.00 100 1019.3
20260901055838 74 338 0.0 0.0 0.00 0.00 0.00 100 1019.3
20260901055339 74 335 0.0 0.0 0.00 0.00 0.00 100 1019.3
20260901054841 74 334 0.0 0.0 0.00 0.00 0.00 100 1019.3
20260901054338 75 338 0.0 0.0 0.00 0.00 0.00 100 1019.3
20260901053838 75 340 0.0 0.0 0.00 0.00 0.00 100 1019.3
20260901053338 75 347 0.0 0.0 0.00 0.00 0.00 100 1019.3
20260901052839 75 314 0.0 0.0 0.00 0.00 0.00 100 1019.3
20260901052338 75 311 0.0 0.0 0.00 0.00 0.00 100 1019.3
20260901051841 75 311 0.0 0.0 0.00 0.00 0.00 100 1019.3
20260901051339 75 311 0.0 0.0 0.00 0.00 0.00 100 1019.3
20260901050838 75 313 0.0 0.0 0.00 0.00 0.00 100 1019.3
20260901050338 75 295 0.0 0.0 0.00 0.00 0.00 100 1019.3
20260901045839 75 301 0.0 0.0 0.00 0.00 0.00 100 1019.3
20260901045339 75 331 0.0 0.0 0.00 0.00 0.00 100 1019.3
20260901044839 75 331 0.0 0.0 0.00 0.00 0.00 100 1019.3
20260901044339 75 331 0.0 0.0 0.00 0.00 0.00 100 1019.6
20260901043839 75 335 0.0 0.0 0.00 0.00 0.00 100 1019.6
20260901043338 75 333 0.0 0.0 0.00 0.00 0.00 100 1019.3
20260901042839 75 333 0.0 0.0 0.00 0.00 0.00 100 1019.3
20260901042338 75 333 0.0 0.0 0.00 0.00 0.00 100 1019.6
20260901041839 75 333 0.0 0.0 0.00 0.00 0.00 100 1019.3
20260901041339 76 333 0.0 0.0 0.00 0.00 0.00 99 1019.3
20260901040839 76 333 0.0 0.0 0.00 0.00 0.00 99 1019.3
20260901040339 76 336 0.0 0.0 0.00 0.00 0.00 99 1019.3
20260901035842 76 319 0.0 0.0 0.00 0.00 0.00 99 1019.3
20260901035341 76 311 0.0 0.0 0.00 0.00 0.00 99 1019.3
20260901034840 76 311 0.0 0.0 0.00 0.00 0.00 99 1019.3
20260901034339 76 307 0.0 0.0 0.00 0.00 0.00 99 1019.3
20260901033839 76 325 0.0 0.0 0.00 0.00 0.00 99 1019.3
20260901033339 76 329 0.0 0.0 0.00 0.00 0.00 99 1019.3
20260901032838 76 325 0.0 0.0 0.00 0.00 0.00 99 1019.3
20260901032339 76 325 0.0 0.0 0.00 0.00 0.00 99 1019.3
20260901031840 76 325 0.0 0.0 0.00 0.00 0.00 99 1019.3
20260901031339 76 326 0.0 0.0 0.00 0.00 0.00 98 1019.3
20260901030839 76 330 0.0 0.0 0.00 0.00 0.00 98 1019.3
20260901030339 76 333 0.0 0.0 0.00 0.00 0.00 98 1019.3